Location: Boda
(47.1872°N, 9.5454°E)
Time: 09:05:08
(UTC+00:00)

Cosmos 614 Rocket - Pass Details

Date: 14 May 2021
Orbit: 733 x 763 km, 74.1° (Epoch: 16 June)

Event Time Altitude Azimuth Distance (km) Brightness Sun altitude
Rises 00:48:21 0° 338° (NNW) 3,178 7.9 -21.1°
Reaches altitude 10° 00:50:43 10° 340° (NNW) 2,254 7.0 -21.0°
Maximum altitude 00:55:49 78° 67° (ENE) 763 4.0 -20.6°
Enters shadow 00:58:46 26° 151° (SSE) 1,446 5.1 -20.4°
